Weather History for Whiting Fld NAS, FL

Change the Weather History Date:

Saturday, May 25, 2013

  Actual Average Record
Temperature  
Mean Temperature 73 °F -  
Max Temperature 90 °F 83 °F 97 °F (2012)
Min Temperature 57 °F 64 °F 57 °F (2013)
Cooling Degree Days 8    
Growing Degree Days 23 (Base 50)    
Moisture  
Dew Point 49 °F    
Average Humidity 48    
Maximum Humidity 83    
Minimum Humidity 22    
Precipitation  
Precipitation 0.00 in - - ()
Sea Level Pressure  
Sea Level Pressure 30.15 in    
Wind  
Wind Speed 4 mph (East)    
Max Wind Speed 13 mph    
Max Gust Speed -    
Visibility 10 miles    
Events      
Averages and records for this station are not official NWS values.
T = Trace of Precipitation, MM = Missing Value Source: NWS Daily Summary

Daily Weather History Graph

Daily Weather History Graph

Search for Another Location

Airport:

Trip Planner

Search our weather history database for the weather conditions in past years. The results will help you decide how hot, cold, wet, or windy it might be!

Date:

Astronomy

May. 25, 2013 Rise Set
Actual Time 5:47 AM CDT 7:42 PM CDT
Civil Twilight 5:20 AM CDT 8:09 PM CDT
Nautical Twilight 4:48 AM CDT 8:42 PM CDT
Astronomical Twilight 4:13 AM CDT 9:16 PM CDT
Moon 8:30 PM CDT (5/25) 6:13 AM CDT (5/25)
Length of Visible Light 14h 48m
Length of Day
13h 54m
Full, 100% of the Moon is Illuminated
May 25
Full
May 31
Last Quarter
Jun 8
New
Jun 16
First Quarter
Jun 23
Full

Hourly Weather History & Observations

Time (CDT) Temp. Heat Index Dew Point Humidity Pressure Visibility Wind Dir Wind Speed Gust Speed Precip Events Conditions
12:56 AM 62.1 °F - 50.0 °F 65% 30.12 in 10.0 mi Calm Calm - N/A   Clear
1:56 AM 64.0 °F - 48.0 °F 56% 30.12 in 10.0 mi NNE 4.6 mph - N/A   Clear
2:56 AM 61.0 °F - 46.0 °F 58% 30.12 in 10.0 mi NNE 4.6 mph - N/A   Clear
3:56 AM 60.1 °F - 45.0 °F 57% 30.13 in 10.0 mi NNE 4.6 mph - N/A   Clear
4:56 AM 59.0 °F - 44.1 °F 58% 30.15 in 10.0 mi NNE 4.6 mph - N/A   Clear
5:56 AM 57.9 °F - 43.0 °F 58% 30.18 in 10.0 mi NNE 4.6 mph - N/A   Clear
6:56 AM 62.1 °F - 44.1 °F 52% 30.19 in 10.0 mi NNE 4.6 mph - N/A   Clear
7:56 AM 66.0 °F - 46.0 °F 48% 30.20 in 10.0 mi ENE 6.9 mph - N/A   Clear
8:56 AM 71.1 °F - 46.9 °F 42% 30.20 in 10.0 mi ENE 9.2 mph - N/A   Clear
9:56 AM 75.9 °F - 48.9 °F 38% 30.20 in 10.0 mi East 6.9 mph - N/A   Clear
10:56 AM 80.1 °F - 48.9 °F 34% 30.21 in 10.0 mi East 6.9 mph - N/A   Clear
11:56 AM 81.0 °F - 45.0 °F 28% 30.19 in 10.0 mi Calm Calm - N/A   Clear
12:56 PM 84.9 °F - 46.0 °F 26% 30.17 in 10.0 mi Variable 4.6 mph - N/A   Clear
1:56 PM 87.1 °F - 46.9 °F 25% 30.14 in 10.0 mi Variable 4.6 mph - N/A   Clear
2:56 PM 89.1 °F - 46.0 °F 22% 30.12 in 10.0 mi South 8.1 mph - N/A   Clear
3:56 PM 87.1 °F 84.9 °F 53.1 °F 31% 30.11 in 10.0 mi SSW 12.7 mph - N/A   Clear
4:56 PM 84.0 °F - 51.1 °F 32% 30.12 in 10.0 mi South 10.4 mph - N/A   Clear
5:56 PM 81.0 °F - 51.1 °F 35% 30.12 in 10.0 mi South 9.2 mph - N/A   Clear
6:56 PM 78.1 °F - 52.0 °F 40% 30.12 in 10.0 mi SSW 5.8 mph - N/A   Clear
7:56 PM 73.9 °F - 54.0 °F 50% 30.12 in 10.0 mi SW 3.5 mph - N/A   Clear
8:56 PM 64.9 °F - 55.0 °F 70% 30.13 in 10.0 mi Calm Calm - N/A   Clear
9:56 PM 64.0 °F - 55.0 °F 73% 30.14 in 10.0 mi Calm Calm - N/A   Clear
10:56 PM 60.1 °F - 55.0 °F 83% 30.15 in 10.0 mi Calm Calm - N/A   Clear
11:56 PM 61.0 °F - 54.0 °F 78% 30.14 in 10.0 mi Calm Calm - N/A   Clear